Location: Carrières
(48.9495°N, 2.0407°E)
Time: 00:59:26
(UTC+00:00)

ATLAS 2AS CENTAUR R/B - Pass Details

Date: 28 January 2023
Orbit: 986 x 1226 km, 63.7° (Epoch: 31 January)

Event Time Altitude Azimuth Distance (km) Brightness Sun altitude
Rises 19:09:25 0° 318° (NW) 3,992 6.3 -24.1°
Reaches altitude 10° 19:12:11 10° 318° (NW) 2,994 5.6 -24.5°
Maximum altitude 19:19:18 90° 318° (NW) 1,073 2.6 -25.7°
Enters shadow 19:21:31 47° 140° (SE) 1,374 2.9 -26.1°
